Ord, NE

10:47 PM CDT on March 23, 2017 (GMT -0500)
Sharp

Weather History for KODX - April, 2014

Change the Weather History Date:

Monday, April 21, 2014

  Actual Average Record
Temperature  
Mean Temperature 54 °F 50 °F  
Max Temperature 72 °F 63 °F 80 °F (2007)
Min Temperature 36 °F 38 °F 27 °F (2013)
Degree Days  
Heating Degree Days 11 15  
Month to date heating degree days 384 372  
Since 1 July heating degree days 6235  
Cooling Degree Days 0 0  
Month to date cooling degree days 0 0  
Year to date cooling degree days 0 0  
Growing Degree Days 8 (Base 50)    
Moisture  
Dew Point 36 °F    
Average Humidity 51    
Maximum Humidity 86    
Minimum Humidity 16    
Precipitation  
Precipitation 0.02 in 0.10 in 1.39 in (1984)
Month to date precipitation 0.67 1.65  
Year to date precipitation 1.12 3.91  
Sea Level Pressure  
Sea Level Pressure 30.07 in    
Wind  
Wind Speed 12 mph (North)    
Max Wind Speed 26 mph    
Max Gust Speed 35 mph    
Visibility 10 miles    
Events Rain , Thunderstorm    
T = Trace of Precipitation, MM = Missing Value Source: NWS Daily Summary

Daily Weather History Graph

Daily Weather History Graph

Search for Another Location

Airport or City:

Trip Planner

Search our weather history database for the weather conditions in past years. The results will help you decide how hot, cold, wet, or windy it might be!

Date:

Astronomy

Apr. 21, 2014 Rise Set
Actual Time 6:46 AM CDT 8:23 PM CDT
Civil Twilight 6:17 AM CDT 8:52 PM CDT
Nautical Twilight 5:41 AM CDT 9:27 PM CDT
Astronomical Twilight 5:04 AM CDT 10:05 PM CDT
Moon 1:55 AM CDT (4/21) 12:14 PM CDT (4/21)
Length of Visible Light 14h 35m
Length of Day
13h 36m
Waning Gibbous, 57% of the Moon is Illuminated
Apr 21
Waning Gibbous
Apr 22
Last Quarter
Apr 29
New
May 6
First Quarter
May 14
Full

Hourly Weather History & Observations

Time (CDT) Temp. Windchill Dew Point Humidity Pressure Visibility Wind Dir Wind Speed Gust Speed Precip Events Conditions
12:06 AM 61.0 °F - 51.1 °F 70% 29.96 in 10.0 mi WNW 9.2 mph - N/A Thunderstorm Mostly Cloudy
12:33 AM 64.0 °F - 50.0 °F 60% 29.98 in 10.0 mi NNW 11.5 mph - N/A Thunderstorm Thunderstorm
12:43 AM 62.1 °F - 52.0 °F 70% 29.99 in 9.0 mi Variable 3.5 mph - 0.00 in Rain , Thunderstorm Light Thunderstorms and Rain
12:53 AM 61.0 °F - 53.1 °F 75% 29.98 in 9.0 mi West 3.5 mph - 0.01 in Rain , Thunderstorm Light Thunderstorms and Rain
1:06 AM 59.0 °F - 53.1 °F 81% 29.98 in 7.0 mi ESE 5.8 mph - 0.02 in Rain , Thunderstorm Rain
1:26 AM 61.0 °F - 51.1 °F 70% 29.95 in 10.0 mi South 6.9 mph - 0.03 in Rain Light Rain
1:53 AM 57.9 °F - 53.1 °F 84% 29.96 in 10.0 mi SW 6.9 mph - 0.03 in   Overcast
2:53 AM 55.0 °F - 52.0 °F 89% 29.95 in 10.0 mi Calm Calm - N/A   Partly Cloudy
3:53 AM 55.0 °F - 48.9 °F 80% 29.96 in 10.0 mi NW 13.8 mph - N/A   Clear
4:53 AM 53.1 °F - 42.1 °F 66% 29.99 in 10.0 mi NNW 15.0 mph - N/A   Clear
5:53 AM 48.9 °F - 37.9 °F 66% 30.02 in 10.0 mi NNW 10.4 mph - N/A   Clear
6:53 AM 50.0 °F - 35.1 °F 57% 30.05 in 10.0 mi NNW 12.7 mph - N/A   Clear
7:53 AM 48.9 °F - 35.1 °F 59% 30.09 in 10.0 mi NNW 12.7 mph - N/A   Clear
8:53 AM 55.9 °F - 36.0 °F 47% 30.11 in 10.0 mi North 13.8 mph - N/A   Clear
9:53 AM 61.0 °F - 33.1 °F 35% 30.12 in 10.0 mi North 19.6 mph 28.8 mph N/A   Clear
10:53 AM 64.0 °F - 30.9 °F 29% 30.14 in 10.0 mi North 24.2 mph 32.2 mph N/A   Clear
11:53 AM 66.9 °F - 28.9 °F 24% 30.15 in 10.0 mi NNE 21.9 mph 29.9 mph N/A   Clear
12:53 PM 69.1 °F - 28.9 °F 22% 30.14 in 10.0 mi North 20.7 mph 28.8 mph N/A   Clear
1:53 PM 70.0 °F - 25.0 °F 18% 30.14 in 10.0 mi North 19.6 mph 29.9 mph N/A   Clear
2:53 PM 71.1 °F - 24.1 °F 17% 30.13 in 10.0 mi North 20.7 mph 27.6 mph N/A   Clear
3:53 PM 71.1 °F - 23.0 °F 16% 30.12 in 10.0 mi North 16.1 mph 27.6 mph N/A   Clear
4:53 PM 71.1 °F - 23.0 °F 16% 30.11 in 10.0 mi North 18.4 mph 21.9 mph N/A   Clear
5:53 PM 71.1 °F - 24.1 °F 17% 30.11 in 10.0 mi North 12.7 mph 23.0 mph N/A   Clear
6:53 PM 68.0 °F - 24.1 °F 19% 30.11 in 10.0 mi NNE 12.7 mph - N/A   Clear
7:53 PM 63.0 °F - 27.0 °F 26% 30.12 in 10.0 mi North 6.9 mph - N/A   Clear
8:53 PM 55.9 °F - 27.0 °F 33% 30.14 in 10.0 mi North 4.6 mph - N/A   Unknown
9:53 PM 48.0 °F - 27.0 °F 44% 30.16 in 10.0 mi North 3.5 mph - N/A   Clear
10:53 PM 46.0 °F 44.8 °F 26.1 °F 46% 30.17 in 10.0 mi NNW 3.5 mph - N/A   Clear
11:53 PM 46.0 °F 43.9 °F 28.0 °F 50% 30.17 in 10.0 mi East 4.6 mph - N/A   Clear